Torna al catalogo

IRIDIUM 33 DEB

AttivoPO
NORAD 34366·DEBRIS·🇺🇸 United States

Lanciato Sep 14, 1997 da Baikonur Cosmodrome

Loading…

Prossimi Passaggi (prossime 24 ore)

TLE

AggiornatoSource: Space-Track

Epoca: Sep 14, 2026, 00:58 UTC

1 34366U 97051FJ  26257.04039225  .00002536  00000-0  56671-3 0  9995
2 34366  86.3644 289.3214 0017115 295.3028  91.5889 14.56342814921862

Traccia IRIDIUM 33 DEB in tempo reale con AllMySat

Download on the App Store